Torna al catalogo

STARLINK-4780

AttivoComunicazioniVLEO
NORAD 53848·PAYLOAD·🇺🇸 United States

Lanciato Sep 19, 2022 da Cape Canaveral Space Force Station

Loading…

Prossimi Passaggi (prossime 24 ore)

TLE

AggiornatoSource: CelesTrak SupGP

Epoca: Sep 14, 2026, 14:07 UTC

1 53848C 22114AG  26257.58868056  .00045449  00000+0  28487-2 0  2579
2 53848  53.1582 165.2266 0001565  96.8414 228.9768 15.08831367    16

Traccia STARLINK-4780 in tempo reale con AllMySat

Download on the App Store